WetterOnline ( https://www.wetteronline.de )

Wetter aktuell Rosenfors

Aktuelles Wetter: Hultsfred Swedish Air Force (112m)

6-stündlich | Neueste Meldungen
Ortszeit Temperatur Wetter
So, 29.11. 19:00 -0.4° C bedeckt
So, 29.11. 13:00 0.7° C bedeckt
So, 29.11. 7:00 -0.6° C leichter Schneefall
So, 29.11. 1:00 -1.0° C wolkig
Sa, 28.11. 19:00 0.4° C leichte Schneeschauer
Sa, 28.11. 13:00 0.9° C bedeckt
Sa, 28.11. 7:00 -0.6° C bedeckt
Sa, 28.11. 1:00 -0.4° C bedeckt
Ortszeit Temperatur Wetter
Mo, 30.11. 0:00 -1.6° C bedeckt
So, 29.11. 23:00 -1.6° C bedeckt
So, 29.11. 22:00 -1.5° C bedeckt
So, 29.11. 21:00 -2.1° C wolkig
So, 29.11. 20:00 -0.9° C bewölkt
So, 29.11. 19:00 -0.4° C bedeckt
Ortszeit Relative Feuchte Sichtweite
So, 29.11. 19:00 85% 17 km
So, 29.11. 13:00 85% 12 km
So, 29.11. 7:00 87% 7 km
So, 29.11. 1:00 88% 15 km
Sa, 28.11. 19:00 92% 5.0 km
Sa, 28.11. 13:00 94% 16 km
Sa, 28.11. 7:00 96% 16 km
Sa, 28.11. 1:00 97% 13 km
Ortszeit Relative Feuchte Sichtweite
Mo, 30.11. 0:00 94% 14 km
So, 29.11. 23:00 94% 15 km
So, 29.11. 22:00 93% 17 km
So, 29.11. 21:00 91% 14 km
So, 29.11. 20:00 86% 16 km
So, 29.11. 19:00 85% 17 km
Ortszeit Niederschlagsmenge Niederschlagsart
So, 29.11. 19:00 0.1 l/m2 in 12 Std. -
So, 29.11. 13:00 0.1 l/m2 in 1 Std. Schnee
So, 29.11. 7:00 0.1 l/m2 in 12 Std. Schnee
So, 29.11. 1:00 keine Meldung -
Sa, 28.11. 19:00 0.1 l/m2 in 12 Std. Schneeschauer
Sa, 28.11. 13:00 0.0 l/m2 in 1 Std. -
Sa, 28.11. 7:00 0.0 l/m2 in 12 Std. -
Sa, 28.11. 1:00 keine Meldung -
Ortszeit Niederschlagsmenge Niederschlagsart
Mo, 30.11. 0:00 0.0 l/m2 in 1 Std. -
So, 29.11. 23:00 0.0 l/m2 in 1 Std. -
So, 29.11. 22:00 0.0 l/m2 in 1 Std. -
So, 29.11. 21:00 0.0 l/m2 in 1 Std. -
So, 29.11. 20:00 0.0 l/m2 in 1 Std. -
So, 29.11. 19:00 0.0 l/m2 in 1 Std. -
Ortszeit Stärke Spitze Richtung
km/h Bft. km/h Grad Sektor
So, 29.11. 19:00 4 1 14 350° N
So, 29.11. 13:00 7 2 11 350° N
So, 29.11. 7:00 7 2 14 360° N
So, 29.11. 1:00 6 1 - 350° N
Sa, 28.11. 19:00 7 2 - 360° N
Sa, 28.11. 13:00 4 1 7 30° NO
Sa, 28.11. 7:00 0 0 7 - -
Sa, 28.11. 1:00 6 1 - 340° N
Ortszeit Stärke Spitze Richtung
km/h Bft. km/h Grad Sektor
Mo, 30.11. 0:00 6 1 13 320° NW
So, 29.11. 23:00 9 2 13 300° NW
So, 29.11. 22:00 4 1 11 360° N
So, 29.11. 21:00 2 1 7 - -
So, 29.11. 20:00 7 2 11 320° NW
So, 29.11. 19:00 4 1 14 350° N
Ortszeit Untergrenze Bedeckung Gattung
total tief tief mittel hoch
So, 29.11. 19:00 540 m 8/8 6/8 - - -
So, 29.11. 13:00 810 m 8/8 8/8 - - -
So, 29.11. 7:00 720 m - - - - -
So, 29.11. 1:00 - 6/8 - - - -
Sa, 28.11. 19:00 450 m 8/8 8/8 - - -
Sa, 28.11. 13:00 270 m 8/8 8/8 - - -
Sa, 28.11. 7:00 960 m 8/8 8/8 - - -
Sa, 28.11. 1:00 180 m 8/8 8/8 - - -
Ortszeit Bedeckungsgrad in Achtel und Wolkenuntergrenze
Mo, 30.11. 0:00 8(180m)
So, 29.11. 23:00 8(180m)
So, 29.11. 22:00 8(210m)
So, 29.11. 21:00 6
So, 29.11. 20:00 3(480m) 7(1380m)
So, 29.11. 19:00 6(540m) 8(1410m)
Ortszeit Luftdruck NN (hPa) Tendenz (hPa in 3 Std.)
So, 29.11. 19:00 1027 - 0,5
So, 29.11. 13:00 1028 - 0,9
So, 29.11. 7:00 1029 - 0,5
So, 29.11. 1:00 1030 - 0,8
Sa, 28.11. 19:00 1030 + 1,0
Sa, 28.11. 13:00 1029 + 0,4
Sa, 28.11. 7:00 1027 + 1,0
Sa, 28.11. 1:00 1025 + 0,7
Ortszeit Luftdruck NN (hPa) Tendenz (hPa in 3 Std.)
Mo, 30.11. 0:00 1025 - 0,9
So, 29.11. 23:00 1026 - 0,8
So, 29.11. 22:00 1026 - 0,6
So, 29.11. 21:00 1026 - 0,5
So, 29.11. 20:00 1027 - 0,6
So, 29.11. 19:00 1027 - 0,5
Ortszeit Schneehöhe (cm)
So, 29.11. 19:00 -
So, 29.11. 13:00 -
So, 29.11. 7:00 -
So, 29.11. 1:00 -
Sa, 28.11. 19:00 -
Sa, 28.11. 13:00 -
Sa, 28.11. 7:00 -
Sa, 28.11. 1:00 -
Ortszeit Schneehöhe (cm)
Mo, 30.11. 0:00 -
So, 29.11. 23:00 -
So, 29.11. 22:00 -
So, 29.11. 21:00 -
So, 29.11. 20:00 -
So, 29.11. 19:00 -
Link zu dieser Seite / Seite empfehlen

Das Wetter in ...